When you browse on this site, cookies collect data to enhance your experience and personalize the content and advertising you see.
Visit our Privacy Policy to learn more. By continuing to use the site, you agree to this use of cookies and data.
  • In Norway
  • List of Countries
  • For 7 days
  • Water Temperature
  • Satellite Maps
  • Weather Map
  • Weather Widgets
  • user-avatar
    Login

    Hourly Weather Zarka

    Today, 22 January, Tuesday

    Time Temperature Precipitation Wind Pressure Humidity
    00:00 +9°C° 0 mm 2 mps 704 mmHg 47%
    01:00 +9°C° 0 mm 2 mps 704 mmHg 46%
    02:00 +9°C° 0 mm 3 mps 704 mmHg 46%
    03:00 +9°C° 0 mm 3 mps 704 mmHg 46%
    04:00 +8°C° 0 mm 2 mps 703 mmHg 46%
    05:00 +8°C° 0 mm 2 mps 703 mmHg 46%
    06:00 +8°C° 0 mm 2 mps 703 mmHg 45%
    07:00 +9°C° 0 mm 2 mps 704 mmHg 44%
    08:00 +9°C° 0 mm 2 mps 704 mmHg 43%
    09:00 +12°C° 0 mm 2 mps 704 mmHg 40%
    10:00 +13°C° 0 mm 2 mps 704 mmHg 36%
    11:00 +15°C° 0 mm 1 mps 704 mmHg 33%
    12:00 +16°C° 0 mm 2 mps 704 mmHg 32%
    13:00 +17°C° 0 mm 2 mps 704 mmHg 31%
    14:00 +17°C° 0 mm 3 mps 704 mmHg 30%
    15:00 +16°C° 0 mm 3 mps 704 mmHg 34%
    16:00 +14°C° 0 mm 3 mps 704 mmHg 38%
    17:00 +13°C° 0 mm 3 mps 704 mmHg 42%
    18:00 +14°C° 0 mm 2 mps 704 mmHg 47%
    19:00 +13°C° 0 mm 2 mps 704 mmHg 52%
    20:00 +12°C° 0 mm 2 mps 704 mmHg 56%
    21:00 +10°C° 0 mm 2 mps 704 mmHg 60%
    22:00 +11°C° 0 mm 1 mps 704 mmHg 64%
    23:00 +10°C° 0 mm 1 mps 704 mmHg 68%

    Tomorrow, 23 January, Wednesday

    Time Temperature Precipitation Wind Pressure Humidity
    00:00 +10°C° 0 mm 1 mps 704 mmHg 71%
    01:00 +9°C° 0 mm 1 mps 704 mmHg 74%
    02:00 +9°C° 0 mm 1 mps 704 mmHg 78%
    03:00 +8°C° 0 mm 1 mps 704 mmHg 79%
    04:00 +8°C° 0 mm 1 mps 704 mmHg 81%
    05:00 +6°C° 0 mm 0 mps 704 mmHg 82%
    06:00 +7°C° 0 mm 0 mps 704 mmHg 78%
    07:00 +8°C° 0 mm 0 mps 704 mmHg 73%
    08:00 +10°C° 0 mm 1 mps 705 mmHg 68%
    09:00 +11°C° 0 mm 1 mps 705 mmHg 58%
    10:00 +13°C° 0 mm 2 mps 705 mmHg 48%
    11:00 +13°C° 0 mm 3 mps 705 mmHg 37%
    12:00 +14°C° 0 mm 3 mps 704 mmHg 35%
    13:00 +16°C° 0 mm 3 mps 704 mmHg 32%
    14:00 +17°C° 0 mm 4 mps 703 mmHg 29%
    15:00 +15°C° 0 mm 4 mps 703 mmHg 32%
    16:00 +14°C° 0 mm 3 mps 703 mmHg 35%
    17:00 +13°C° 0 mm 3 mps 702 mmHg 37%
    18:00 +13°C° 0 mm 3 mps 702 mmHg 39%
    19:00 +12°C° 0 mm 4 mps 702 mmHg 41%
    20:00 +11°C° 0 mm 4 mps 702 mmHg 43%
    21:00 +11°C° 0 mm 4 mps 702 mmHg 44%
    22:00 +11°C° 0 mm 4 mps 702 mmHg 45%
    23:00 +10°C° 0 mm 4 mps 702 mmHg 45%

    Day after tomorrow, 24 January, Thursday

    Time Temperature Precipitation Wind Pressure Humidity
    00:00 +10°C° 0 mm 4 mps 702 mmHg 45%
    01:00 +10°C° 0 mm 4 mps 702 mmHg 45%
    02:00 +10°C° 0 mm 4 mps 701 mmHg 45%
    03:00 +8°C° 0 mm 4 mps 701 mmHg 46%
    04:00 +9°C° 0 mm 3 mps 701 mmHg 46%
    05:00 +8°C° 0 mm 3 mps 701 mmHg 47%
    06:00 +9°C° 0 mm 3 mps 701 mmHg 47%
    07:00 +8°C° 0 mm 4 mps 701 mmHg 47%
    08:00 +8°C° 0 mm 4 mps 701 mmHg 46%
    09:00 +11°C° 0 mm 4 mps 701 mmHg 41%
    10:00 +13°C° 0 mm 4 mps 701 mmHg 35%
    11:00 +15°C° 0 mm 5 mps 701 mmHg 30%
    12:00 +17°C° 0 mm 4 mps 701 mmHg 26%
    13:00 +19°C° 0 mm 3 mps 701 mmHg 23%
    14:00 +20°C° 0 mm 2 mps 701 mmHg 19%
    15:00 +19°C° 0 mm 2 mps 700 mmHg 23%
    16:00 +18°C° 0 mm 2 mps 700 mmHg 26%
    17:00 +16°C° 0 mm 2 mps 700 mmHg 30%
    18:00 +16°C° 0 mm 2 mps 700 mmHg 30%
    19:00 +15°C° 0 mm 2 mps 701 mmHg 30%
    20:00 +14°C° 0 mm 2 mps 701 mmHg 31%
    21:00 +13°C° 0 mm 2 mps 702 mmHg 40%
    22:00 +12°C° 0 mm 2 mps 702 mmHg 48%
    23:00 +10°C° 0 mm 3 mps 702 mmHg 57%

    25 January, Friday

    Time Temperature Precipitation Wind Pressure Humidity
    00:00 +10°C° 0 mm 2 mps 703 mmHg 65%
    01:00 +9°C° 0 mm 2 mps 703 mmHg 73%
    02:00 +8°C° 0 mm 2 mps 703 mmHg 81%
    03:00 +9°C° 0 mm 1 mps 702 mmHg 84%
    04:00 +8°C° 0 mm 1 mps 702 mmHg 87%
    05:00 +8°C° 0 mm 1 mps 702 mmHg 90%
    06:00 +8°C° 0 mm 1 mps 702 mmHg 85%
    07:00 +9°C° 0 mm 1 mps 703 mmHg 80%
    08:00 +9°C° 0 mm 2 mps 703 mmHg 75%
    09:00 +10°C° 0 mm 2 mps 703 mmHg 66%
    10:00 +13°C° 0 mm 2 mps 704 mmHg 57%
    11:00 +14°C° 0 mm 3 mps 704 mmHg 48%
    12:00 +16°C° 0 mm 3 mps 703 mmHg 44%
    13:00 +17°C° 0 mm 3 mps 703 mmHg 40%
    14:00 +18°C° 0 mm 4 mps 702 mmHg 36%
    15:00 +17°C° 0 mm 3 mps 702 mmHg 39%
    16:00 +16°C° 0 mm 2 mps 702 mmHg 43%
    17:00 +15°C° 0 mm 2 mps 701 mmHg 46%
    18:00 +15°C° 0 mm 2 mps 701 mmHg 47%
    19:00 +14°C° 0 mm 2 mps 702 mmHg 49%
    20:00 +13°C° 0 mm 2 mps 702 mmHg 50%
    21:00 +13°C° 0 mm 2 mps 702 mmHg 50%
    22:00 +13°C° 0 mm 2 mps 701 mmHg 50%
    23:00 +12°C° 0 mm 2 mps 701 mmHg 51%

    26 January, Saturday

    Time Temperature Precipitation Wind Pressure Humidity
    00:00 +12°C° 0 mm 2 mps 701 mmHg 52%
    01:00 +12°C° 0 mm 1 mps 701 mmHg 53%
    02:00 +11°C° 0 mm 1 mps 700 mmHg 55%
    03:00 +11°C° 0 mm 1 mps 700 mmHg 56%
    04:00 +10°C° 0 mm 1 mps 700 mmHg 57%
    05:00 +10°C° 0 mm 1 mps 700 mmHg 59%
    06:00 +11°C° 0 mm 1 mps 700 mmHg 55%
    07:00 +12°C° 0 mm 1 mps 701 mmHg 51%
    08:00 +13°C° 0 mm 1 mps 701 mmHg 48%
    09:00 +15°C° 0 mm 1 mps 702 mmHg 41%
    10:00 +16°C° 0 mm 2 mps 702 mmHg 34%
    11:00 +18°C° 0 mm 2 mps 702 mmHg 27%
    12:00 +19°C° 0 mm 3 mps 702 mmHg 24%
    13:00 +20°C° 0 mm 4 mps 701 mmHg 22%
    14:00 +20°C° 0 mm 5 mps 701 mmHg 20%
    15:00 +19°C° 0 mm 4 mps 701 mmHg 22%
    16:00 +18°C° 0 mm 3 mps 700 mmHg 24%
    17:00 +16°C° 0 mm 3 mps 700 mmHg 26%
    18:00 +15°C° 0 mm 2 mps 700 mmHg 30%
    19:00 +14°C° 0 mm 2 mps 701 mmHg 33%
    20:00 +13°C° 0 mm 2 mps 701 mmHg 36%
    21:00 +12°C° 0 mm 1 mps 701 mmHg 39%
    22:00 +12°C° 0 mm 1 mps 701 mmHg 41%
    23:00 +11°C° 0 mm 1 mps 701 mmHg 43%

    27 January, Sunday

    Time Temperature Precipitation Wind Pressure Humidity
    00:00 +11°C° 0 mm 1 mps 701 mmHg 48%
    01:00 +10°C° 0 mm 1 mps 701 mmHg 52%
    02:00 +10°C° 0 mm 1 mps 701 mmHg 56%
    03:00 +9°C° 0 mm 1 mps 701 mmHg 61%
    04:00 +9°C° 0 mm 1 mps 701 mmHg 67%
    05:00 +8°C° 0 mm 1 mps 701 mmHg 72%
    06:00 +9°C° 0 mm 1 mps 701 mmHg 69%
    07:00 +10°C° 0 mm 1 mps 702 mmHg 66%
    08:00 +11°C° 0 mm 1 mps 702 mmHg 62%
    09:00 +12°C° 0 mm 2 mps 702 mmHg 52%
    10:00 +13°C° 0 mm 3 mps 702 mmHg 41%
    11:00 +15°C° 0 mm 4 mps 703 mmHg 31%
    12:00 +15°C° 0 mm 5 mps 702 mmHg 28%
    13:00 +16°C° 0 mm 6 mps 702 mmHg 26%
    14:00 +16°C° 0 mm 7 mps 702 mmHg 24%
    15:00 +15°C° 0 mm 6 mps 702 mmHg 27%
    16:00 +14°C° 0 mm 6 mps 702 mmHg 30%
    17:00 +13°C° 0 mm 5 mps 702 mmHg 33%
    18:00 +12°C° 0 mm 4 mps 702 mmHg 37%
    19:00 +11°C° 0 mm 3 mps 703 mmHg 41%
    20:00 +10°C° 0 mm 2 mps 703 mmHg 45%
    21:00 +10°C° 0 mm 2 mps 703 mmHg 46%
    22:00 +9°C° 0 mm 2 mps 704 mmHg 47%
    23:00 +9°C° 0 mm 2 mps 704 mmHg 47%
    Show more